Location: Auttagershofen
(48.1940°N, 10.0237°E)
Time: 18:04:02
(UTC+00:00)

Cosmos 1408 Rocket - Pass Details

Date: 18 January 2026
Orbit: 594 x 623 km, 82.6° (Epoch: 18 February)

Event Time Altitude Azimuth Distance (km) Brightness Sun altitude
Exits shadow 05:28:08 27° 274° (W) 1,167 4.4 -15.5°
Maximum altitude 05:28:42 28° 289° (WNW) 1,142 4.3 -15.4°
Drops below altitude 10° 05:32:26 10° 349° (NNW) 1,951 5.9 -14.8°
Sets 05:34:54 0° 1° (N) 2,855 6.8 -14.4°
